This is the latest recevied weather packets stored in our database for station/object KG4ZVW. If no packets are shown the sender has not sent any weather packets the latest 10 day(s).
| Time | Temp. | Humidity | Pressure | Rain* | Wind** | Luminosity | Snow |
|---|---|---|---|---|---|---|---|
| 1777404510 | 28.89° C | 64% | 1019 hPa | 0 mm | - | 853 W/m² | - |
| 1777404204 | 28.89° C | 65% | 1018.9 hPa | 0 mm | - | 816 W/m² | - |
| 1777403903 | 28.89° C | 66% | 1018.9 hPa | 0 mm | - | 220 W/m² | - |
| 1777403620 | 28.89° C | 65% | 1018.9 hPa | 0 mm | - | 919 W/m² | - |
| 1777403314 | 28.89° C | 66% | 1019.2 hPa | 0 mm | - | 904 W/m² | - |
| 1777403009 | 28.33° C | 66% | 1019.2 hPa | 0 mm | - | 877 W/m² | - |
| 1777402707 | 28.33° C | 66% | 1019.2 hPa | 0 mm | - | 963 W/m² | - |
| 1777402402 | 28.89° C | 64% | 1019.1 hPa | 0 mm | - | 267 W/m² | - |
| 1777402118 | 28.89° C | 65% | 1019.1 hPa | 0 mm | - | 1048 W/m² | - |
| 1777401813 | 28.89° C | 65% | 1019.1 hPa | 0 mm | - | 1035 W/m² | - |
| 1777401510 | 28.33° C | 67% | 1018.8 hPa | 0 mm | - | 1114 W/m² | - |
| 1777401205 | 28.33° C | 66% | 1018.8 hPa | 0 mm | - | 338 W/m² | - |
| 1777400921 | 28.33° C | 65% | 1018.8 hPa | 0 mm | - | 216 W/m² | - |
| 1777400617 | 28.33° C | 68% | 1019 hPa | 0 mm | - | 1155 W/m² | - |
| 1777400314 | 28.33° C | 66% | 1019 hPa | 0 mm | - | 276 W/m² | - |
| 1777400010 | 28.33° C | 65% | 1019 hPa | 0 mm | - | 1113 W/m² | - |
| 1777399706 | 28.89° C | 65% | 1019 hPa | 0 mm | - | 287 W/m² | - |
| 1777399404 | 28.89° C | 66% | 1019 hPa | 0 mm | - | 1062 W/m² | - |
| 1777399120 | 28.89° C | 66% | 1019 hPa | 0 mm | - | 1048 W/m² | - |
| 1777398816 | 28.33° C | 66% | 1019 hPa | 0 mm | - | 1051 W/m² | - |
| 1777398511 | 28.33° C | 66% | 1019 hPa | 0 mm | - | 986 W/m² | - |
| 1777398208 | 28.89° C | 65% | 1019 hPa | 0 mm | - | 684 W/m² | - |
| 1777397921 | 28.89° C | 65% | 1019.2 hPa | 0 mm | - | 288 W/m² | - |
| 1777397615 | 28.89° C | 65% | 1019.2 hPa | 0 mm | - | 547 W/m² | - |
| 1777397310 | 28.89° C | 64% | 1019.2 hPa | 0 mm | - | 1005 W/m² | - |
* Rain latest hour (hover to see other rain measurements)
** Current wind speed in m/s (hover to see current wind gust speed)